This demonstration page uses our WeatherBlox Daily Observations layout. Learn more.

38.88101, -77.10428

Hourly Observations for January 19, 2017

Temp ( °F °C ) Dew Point ( °F °C ) Humidity (%) Winds ( mph kmh ) Pressure ( in mb ) Visibility ( mi km ) Precip ( " mm )
12:52 am 00:52 Cloudy 47 8.3 36 2.2 66 66 NNW 7 11 30.08 1019 10 16.0934 0 0
1:52 am 01:52 Cloudy 47 8.3 36 2.2 66 66 NNW 7 11 30.09 1019 10 16.0934 0 0
2:52 am 02:52 Cloudy 46 7.8 36 2.2 68 68 NNW 7 11 30.09 1019 10 16.0934 0 0
3:52 am 03:52 Mostly Cloudy 45 7.2 36 2.2 71 71 NNW 9 15 30.08 1019 10 16.0934 0 0
4:52 am 04:52 Partly Cloudy 43 6.1 36 2.2 76 76 NNW 9 15 30.08 1019 10 16.0934 0 0
5:52 am 05:52 Partly Cloudy 43 6.1 36 2.2 76 76 NNW 8 13 30.08 1019 10 16.0934 0 0
6:52 am 06:52 Cloudy 46 7.8 37 2.8 71 71 NNW 6 9 30.1 1019 10 16.0934 0 0
7:52 am 07:52 Cloudy 46 7.8 37 2.8 71 71 N 7 11 30.11 1020 10 16.0934 0 0
8:52 am 08:52 Cloudy 48 8.9 37 2.8 66 66 NNW 10 17 30.11 1020 10 16.0934 0 0
9:52 am 09:52 Mostly Cloudy 49 9.4 37 2.8 64 64 NNW 12 19 30.11 1020 10 16.0934 0 0
10:52 am 10:52 Cloudy 50 10 37 2.8 61 61 NNW 13 20 30.11 1020 10 16.0934 0 0
11:52 am 11:52 Cloudy 50 10 37 2.8 61 61 VRB 3 6 30.08 1019 10 16.0934 0 0
12:52 pm 12:52 Cloudy 52 11.1 37 2.8 57 57 WNW 6 9 30.07 1018 10 16.0934 0 0
1:52 pm 13:52 Cloudy 52 11.1 38 3.3 59 59 VRB 6 9 30.03 1017 10 16.0934 0 0
2:52 pm 14:52 Cloudy 52 11.1 38 3.3 59 59 NNW 6 9 30.02 1017 10 16.0934 0 0
3:52 pm 15:52 Cloudy 52 11.1 38 3.3 59 59 NNE 5 7 30.03 1017 10 16.0934 0 0
4:52 pm 16:52 Cloudy 49 9.4 38 3.3 66 66 N 7 11 30.03 1017 10 16.0934 0 0
5:52 pm 17:52 Mostly Cloudy 49 9.4 37 2.8 64 64 NW 5 7 30.02 1017 10 16.0934 0 0
6:52 pm 18:52 Mostly Clear 47 8.3 37 2.8 69 69 S 5 7 30.03 1017 10 16.0934 0 0
7:52 pm 19:52 Mostly Clear 44 6.7 39 3.9 83 83 S 6 9 30.04 1017 10 16.0934 0 0
8:52 pm 20:52 Mostly Clear 42 5.6 39 3.9 89 89 S 3 6 30.04 1017 10 16.0934 0 0
9:52 pm 21:52 Mostly Clear 42 5.6 38 3.3 85 85 Calm 30.03 1017 10 16.0934 0 0
10:52 pm 22:52 Partly Cloudy 41 5 39 3.9 93 93 Calm 30.04 1017 10 16.0934 0 0
11:52 pm 23:52 Partly Cloudy 40 4.4 38 3.3 93 93 SSW 3 6 30.03 1017 10 16.0934 0 0

Powered by AerisWeather